This is the latest recevied weather packets stored in our database for station/object W1RCY. If no packets are shown the sender has not sent any weather packets the latest 10 day(s).
| Time | Temp. | Humidity | Pressure | Rain* | Wind** | Luminosity | Snow |
|---|---|---|---|---|---|---|---|
| 1777217308 | 13.89° C | 46% | 1018.9 hPa | 0 mm | - | 269 W/m² | - |
| 1777217004 | 13.89° C | 45% | 1018.9 hPa | 0 mm | - | 284 W/m² | - |
| 1777216701 | 13.33° C | 46% | 1019 hPa | 0 mm | - | 252 W/m² | - |
| 1777216397 | 13.33° C | 46% | 1018.7 hPa | 0 mm | - | 285 W/m² | - |
| 1777216096 | 13.89° C | 46% | 1018.8 hPa | 0 mm | - | 334 W/m² | - |
| 1777215791 | 13.89° C | 45% | 1018.8 hPa | 0 mm | - | 291 W/m² | - |
| 1777215488 | 13.89° C | 46% | 1018.9 hPa | 0 mm | - | 256 W/m² | - |
| 1777215184 | 14.44° C | 44% | 1018.7 hPa | 0 mm | - | 320 W/m² | - |
| 1777214879 | 14.44° C | 45% | 1018.8 hPa | 0 mm | - | 344 W/m² | - |
| 1777214578 | 13.89° C | 46% | 1018.7 hPa | 0 mm | - | 331 W/m² | - |
| 1777214274 | 13.33° C | 47% | 1019.1 hPa | 0 mm | - | 337 W/m² | - |
| 1777213972 | 13.33° C | 46% | 1018.7 hPa | 0 mm | - | 288 W/m² | - |
| 1777213667 | 12.78° C | 47% | 1018.8 hPa | 0 mm | - | 241 W/m² | - |
| 1777213364 | 13.33° C | 46% | 1018.8 hPa | 0 mm | - | 248 W/m² | - |
| 1777213061 | 12.78° C | 47% | 1018.9 hPa | 0 mm | - | 225 W/m² | - |
| 1777212758 | 12.78° C | 47% | 1018.8 hPa | 0 mm | - | 321 W/m² | - |
| 1777212453 | 12.22° C | 49% | 1019 hPa | 0 mm | - | 300 W/m² | - |
| 1777212148 | 12.22° C | 48% | 1018.9 hPa | 0 mm | - | 186 W/m² | - |
| 1777211844 | 12.22° C | 46% | 1018.9 hPa | 0 mm | - | 150 W/m² | - |
| 1777211543 | 12.78° C | 48% | 1018.7 hPa | 0 mm | - | 152 W/m² | - |
| 1777211239 | 12.78° C | 46% | 1018.7 hPa | 0 mm | - | 151 W/m² | - |
| 1777210936 | 12.22° C | 45% | 1019 hPa | 0 mm | - | 159 W/m² | - |
| 1777210635 | 12.78° C | 50% | 1018.7 hPa | 0 mm | - | 177 W/m² | - |
| 1777210332 | 12.78° C | 49% | 1018.8 hPa | 0 mm | - | 250 W/m² | - |
| 1777210029 | 12.22° C | 52% | 1018.5 hPa | 0 mm | - | 426 W/m² | - |
* Rain latest hour (hover to see other rain measurements)
** Current wind speed in m/s (hover to see current wind gust speed)